Theta_e
308 310 311 312 314 315 317 317 316 316 315 314 310 305 305 305 305 304 305 303 303 306 308 308 309 310 311 310 311 311 315 316 318 319 319 318 318 318 320 320 323 324 325 328 327 332 332 321 322 327 322 322 325 331
306 307 308 310 311 312 314 315 315 315 315 314 308 304 304 305 306 305 304 303 301 301 306 305 305 306 306 307 309 309 313 316 318 318 318 317 318 316 318 324 318 324 317 318 322 325 319 318 319 318 318 326 328 326
304 306 307 308 309 310 311 312 314 314 314 312 306 302 305 305 306 305 304 303 299 301 306 309 310 308 306 304 305 309 314 315 317 314 315 317 318 313 320 318 315 317 313 319 320 322 316 319 316 315 318 326 325 322
303 304 305 306 308 309 311 312 311 310 308 306 304 302 305 305 306 305 304 303 301 300 307 310 308 309 307 308 307 305 309 312 313 313 315 316 317 312 315 313 314 312 312 313 319 316 315 319 314 313 316 322 321 321
302 303 304 306 307 308 309 309 308 307 306 305 302 303 305 305 305 304 304 304 302 302 309 310 306 308 308 309 309 308 308 310 313 314 317 317 314 315 312 311 314 308 311 313 316 312 313 312 312 312 317 321 320 320
303 304 305 306 307 308 308 307 306 305 303 303 302 303 304 305 305 303 306 302 301 300 303 309 309 310 309 311 314 312 311 311 313 315 316 315 311 312 315 316 309 307 308 310 311 310 310 311 311 312 316 318 316 318
301 304 305 306 306 306 305 305 304 303 303 302 303 304 304 304 303 304 308 303 301 300 303 308 312 310 309 311 316 314 312 314 314 315 316 315 312 311 313 316 310 309 308 309 308 309 312 308 309 311 315 315 313 313
300 303 304 305 305 305 304 304 303 303 303 303 303 304 303 303 301 302 304 301 300 301 303 308 312 313 310 313 317 317 316 315 316 317 314 315 312 309 313 311 309 308 307 309 307 307 306 306 307 313 312 314 314 313
299 302 303 303 303 303 304 303 303 302 302 303 303 304 302 300 302 304 302 301 300 302 307 309 312 316 312 313 311 315 318 320 317 317 316 313 315 317 311 309 308 307 307 307 308 306 305 305 305 305 308 312 312 312
298 300 301 302 302 303 303 302 302 302 303 303 304 303 307 303 301 303 301 302 301 301 302 307 310 313 311 313 313 312 317 318 319 317 313 315 318 312 309 307 306 306 305 306 307 304 304 304 303 303 304 305 308 311
297 299 301 302 302 302 302 302 301 302 303 303 304 306 305 303 304 306 310 306 306 308 308 309 310 312 312 315 314 314 315 315 317 318 317 318 319 314 309 307 305 305 304 303 302 301 300 301 301 302 301 301 302 304
297 299 301 301 301 300 301 301 301 302 304 304 303 303 303 305 306 310 311 310 310 311 311 312 313 312 314 313 315 316 315 314 315 315 317 317 317 310 309 308 305 304 303 302 301 300 299 299 299 299 299 298 299 299
296 298 300 300 300 299 300 300 302 302 302 301 303 305 307 308 309 310 310 311 312 312 313 314 317 316 315 315 316 316 315 314 316 317 316 317 314 309 308 307 306 304 302 301 300 299 298 298 297 297 297 296 296 297
297 298 299 300 300 299 299 301 301 302 300 302 305 307 308 309 309 309 311 311 311 313 315 316 317 316 315 315 314 315 315 315 315 315 315 317 313 309 308 305 305 304 303 302 301 299 298 297 295 294 294 294 295 294
296 298 298 300 299 299 299 300 301 300 300 302 305 306 308 308 308 309 310 310 311 312 313 315 315 314 315 314 314 314 314 314 315 316 316 316 312 309 308 306 306 305 305 304 303 302 301 299 297 294 292 292 292 292
296 297 299 299 299 299 299 301 299 298 299 301 304 306 307 308 309 309 310 310 311 314 314 314 314 314 314 314 315 314 313 314 315 316 315 314 312 310 308 306 305 304 304 304 303 302 300 299 298 297 295 294 292 291
296 299 299 299 298 298 299 299 298 299 301 303 305 306 306 307 308 309 309 310 310 314 315 314 314 314 314 315 314 314 315 315 315 315 314 313 312 308 306 305 304 304 304 303 302 302 300 298 297 297 295 293 292 291
297 298 298 298 300 299 297 299 300 301 302 303 305 305 306 306 307 307 307 308 309 311 312 313 313 313 314 314 315 315 315 315 313 314 313 313 311 307 304 306 305 304 304 303 302 301 300 299 298 296 293 291 290 290
297 297 297 298 299 298 298 299 301 302 302 303 304 305 305 305 305 306 306 307 308 309 311 312 311 312 313 312 313 313 313 313 314 312 312 311 309 306 305 305 305 305 304 304 302 301 300 299 298 296 293 292 291 290
295 296 297 298 298 299 301 301 299 302 303 304 304 305 306 306 305 306 306 306 307 308 308 309 310 311 312 312 311 312 312 312 312 311 311 310 307 306 306 305 304 304 303 302 302 301 300 298 297 295 294 292 291 291
295 294 294 299 299 298 300 301 302 302 302 304 304 305 305 306 306 307 307 307 308 308 308 308 309 309 310 310 310 311 312 311 311 311 310 309 306 305 305 304 303 302 302 302 302 301 301 301 297 295 293 294 294 292
295 295 295 296 295 296 299 299 300 302 303 304 305 306 307 307 307 308 308 309 309 309 308 308 310 311 310 310 310 310 310 311 310 307 306 305 306 306 305 304 303 302 302 303 303 302 302 300 298 296 296 294 294 293
296 296 295 297 299 299 301 300 303 303 304 304 304 305 305 306 306 307 309 308 308 308 309 309 309 309 309 308 309 310 311 310 309 308 306 305 304 304 304 303 303 302 302 302 302 302 302 299 296 297 296 295 295 293
297 297 298 299 300 301 300 301 301 302 303 304 303 303 304 305 307 309 309 309 309 310 309 308 309 310 310 310 311 311 310 309 307 306 305 305 305 305 304 303 303 303 302 302 302 302 302 300 297 297 297 297 296 295
298 300 300 301 300 301 301 302 302 302 303 303 304 304 305 307 308 308 309 310 311 312 310 309 309 309 310 310 312 312 310 309 309 308 306 305 305 305 304 303 303 304 303 303 302 303 302 301 299 299 298 298 297 295
300 300 301 301 300 301 301 301 302 302 303 304 304 305 306 307 308 309 311 311 312 312 312 311 311 312 312 312 313 313 310 310 309 308 306 305 305 305 305 306 306 304 303 302 303 303 303 302 301 300 299 298 297 296
302 302 301 301 301 301 302 302 304 304 304 304 304 305 307 308 309 311 312 311 312 311 311 310 310 311 312 311 311 311 310 309 309 308 306 305 305 305 306 306 305 303 303 303 304 304 304 304 302 301 300 300 299 296
300 300 302 302 301 302 303 304 304 305 306 306 306 306 306 308 311 309 309 309 310 310 310 310 310 310 310 311 310 310 309 309 309 308 307 306 306 306 306 305 305 305 306 306 306 305 304 304 303 302 301 301 300 297
300 300 302 302 302 302 303 303 304 305 305 305 306 306 308 309 308 308 307 308 308 309 309 310 310 310 310 310 309 310 310 309 308 309 309 309 309 308 308 308 308 307 306 305 304 303 303 303 302 301 301 301 301 298
301 301 302 302 302 303 303 303 304 305 305 306 306 307 308 309 307 304 307 308 308 308 308 309 310 310 310 310 309 308 308 309 310 309 311 310 310 308 308 307 308 307 304 303 303 300 299 299 299 300 301 302 300 297
301 301 302 302 303 303 304 304 305 306 305 306 307 308 308 309 307 304 305 306 306 307 308 308 309 309 309 309 309 308 307 307 307 306 307 306 305 305 305 304 304 304 303 303 302 301 300 301 301 302 303 303 301 298
302 302 302 303 303 304 305 305 305 305 306 307 308 308 309 309 308 307 302 305 305 307 307 308 308 308 307 307 306 306 307 305 304 303 304 305 304 303 303 303 304 304 303 301 300 301 302 303 303 303 303 303 302 300
302 302 302 303 303 304 305 305 305 306 307 307 308 308 309 309 307 307 302 301 305 306 307 306 305 304 303 303 302 301 300 299 299 300 300 300 299 298 298 298 298 299 300 302 304 304 302 302 302 303 303 302 302 302
Wind_Speed
27 26 27 27 27 25 24 23 25 25 26 26 23 18 7 7 9 5 7 6 7 4 14 10 8 12 10 8 8 12 7 3 6 8 5 5 3 4 4 6 8 5 6 4 5 6 5 17 11 5 7 9 11 4
25 26 26 26 26 26 25 24 24 25 27 25 21 16 8 7 10 7 5 4 8 7 12 32 30 28 26 22 10 3 5 5 3 4 3 5 2 3 5 3 7 2 3 4 4 3 7 10 9 8 10 3 3 6
24 25 26 26 26 26 25 26 24 24 25 23 17 14 7 6 8 10 7 6 4 3 11 9 4 4 9 19 18 5 3 3 2 3 3 3 4 0 3 3 5 4 7 3 7 7 16 9 16 19 17 2 6 9
25 26 26 27 26 27 24 24 24 21 21 16 13 13 6 6 8 10 11 8 5 3 4 2 4 13 10 11 17 24 11 3 6 4 3 3 4 3 1 2 3 3 10 9 5 9 15 5 16 19 20 8 9 8
25 25 25 25 26 25 24 21 18 19 17 11 8 7 6 6 8 11 16 17 14 4 5 10 26 2 6 8 12 15 17 11 7 3 3 3 3 3 2 2 1 3 4 4 3 12 6 13 17 18 15 10 6 8
21 22 23 23 22 20 17 14 15 16 10 8 7 6 7 8 8 4 3 6 11 9 3 4 8 5 6 6 6 10 10 6 5 3 3 2 1 3 2 2 2 4 8 7 6 16 14 14 15 14 11 10 9 6
23 21 21 20 20 18 15 15 13 10 9 8 7 8 7 8 8 5 6 3 11 10 3 5 4 3 4 5 5 4 7 3 4 3 3 2 2 3 2 2 5 7 8 6 11 14 5 10 9 15 9 8 12 11
22 22 22 21 19 19 17 14 11 10 8 9 8 8 8 8 8 9 10 21 13 4 4 4 4 4 1 3 4 4 4 4 4 2 2 3 2 2 3 3 5 6 9 4 8 9 7 8 9 9 7 5 8 7
21 22 21 21 20 18 16 13 11 11 8 7 7 8 6 4 5 1 6 12 15 4 3 3 4 3 0 4 3 4 4 4 3 3 2 2 2 3 2 3 4 6 6 8 7 8 8 9 9 11 11 6 6 6
21 23 22 21 19 18 15 14 12 8 6 6 3 4 3 4 7 12 5 4 3 3 3 4 5 6 4 2 2 3 3 2 3 3 3 3 1 3 2 3 3 4 7 10 4 6 9 9 9 9 9 9 8 5
23 22 20 20 18 17 15 13 10 7 6 3 4 3 4 8 5 4 3 4 5 4 5 5 8 8 4 5 2 1 3 1 3 3 3 2 2 5 6 6 5 4 6 7 7 7 7 7 7 6 7 8 11 10
23 23 22 19 17 16 15 13 10 12 6 3 2 3 3 5 4 5 4 3 6 5 6 6 5 5 2 3 4 3 3 2 2 2 3 2 4 7 7 7 7 6 5 6 9 9 11 11 10 10 9 9 11 12
24 22 20 19 18 16 15 13 13 14 6 3 3 3 4 4 5 7 8 5 5 5 6 7 6 3 4 5 4 3 4 2 0 3 2 4 8 8 7 7 7 7 8 8 8 9 11 13 15 15 13 13 13 15
23 21 21 20 18 16 15 16 13 15 4 3 4 5 7 6 7 6 9 4 3 2 3 5 4 3 4 4 3 4 1 2 3 3 1 5 10 9 8 7 6 6 8 8 8 9 9 10 11 15 17 15 17 17
23 21 25 20 17 15 16 15 18 11 5 4 5 5 8 8 2 3 5 5 5 4 4 3 4 4 4 3 3 3 3 4 3 1 3 7 13 11 10 10 10 10 9 9 11 9 9 11 11 12 14 16 16 18
21 22 26 21 21 18 21 17 13 7 4 3 6 6 6 6 7 7 6 7 4 5 5 4 3 3 5 3 5 6 3 2 1 3 5 10 13 12 12 12 10 10 9 9 9 9 8 9 10 10 11 14 15 13
19 15 14 19 22 21 22 13 6 5 5 4 6 8 9 7 6 4 4 4 1 4 5 4 5 5 2 4 4 3 2 2 3 3 4 10 14 15 14 13 13 11 10 9 8 7 8 8 8 8 9 9 11 12
22 13 20 19 17 18 6 5 5 5 7 7 6 8 8 7 7 7 6 5 5 5 5 4 3 4 4 4 3 3 1 4 3 3 5 11 13 17 17 14 14 12 9 8 7 7 7 6 6 8 9 9 10 10
25 25 22 19 19 8 5 5 4 3 7 6 8 9 8 7 8 8 7 5 7 5 3 3 5 5 8 4 5 2 0 1 3 4 6 13 18 18 17 16 14 12 11 10 9 7 7 4 8 9 9 8 9 8
22 22 25 21 29 4 4 3 5 4 4 4 8 10 8 8 8 8 8 9 8 6 6 6 10 8 5 2 2 3 3 1 4 6 8 9 17 19 17 15 13 14 13 12 10 10 10 8 8 9 9 10 10 8
17 18 14 17 3 4 1 3 4 3 3 4 5 6 7 7 8 9 9 7 8 8 11 11 11 10 8 7 6 4 4 4 4 5 9 10 17 18 18 16 15 15 14 13 12 10 7 8 9 9 10 8 8 8
6 11 4 5 3 3 2 6 2 2 3 4 5 5 5 6 7 7 5 8 8 9 10 11 11 9 8 9 7 9 5 9 7 8 6 16 12 11 14 17 16 13 14 13 12 12 9 10 10 10 9 9 8 8
11 6 3 3 3 3 2 5 4 4 4 3 3 3 4 4 4 3 4 7 10 10 10 11 13 14 10 12 7 6 8 11 5 9 14 17 19 18 18 18 16 15 13 13 11 10 10 11 12 10 9 10 8 8
5 5 3 3 4 4 4 5 3 3 4 6 4 7 7 4 4 4 7 8 7 7 7 10 9 8 7 9 7 6 11 11 11 7 10 15 12 17 18 17 16 14 13 14 13 11 12 12 13 12 11 10 9 8
3 5 3 3 3 4 5 6 5 4 5 6 4 5 4 4 4 3 3 4 4 5 6 7 8 9 8 7 6 11 15 17 13 8 16 18 17 17 15 16 15 14 13 14 15 14 12 12 13 12 12 11 10 11
3 3 6 9 5 5 6 4 6 8 5 4 6 3 3 4 4 4 3 2 1 3 6 7 7 7 6 8 9 9 15 14 13 11 14 17 18 17 12 10 8 13 15 15 15 14 13 13 13 14 13 12 13 12
3 3 4 2 3 3 3 4 4 3 4 5 4 4 3 4 4 2 3 5 3 3 4 6 6 6 6 10 12 14 15 14 13 13 17 16 16 16 16 14 13 14 18 16 14 13 14 14 14 15 14 14 14 14
2 2 4 7 4 4 3 2 4 6 5 4 3 4 2 2 3 3 4 7 3 4 8 8 6 6 9 10 14 16 16 13 12 14 16 13 11 10 10 11 8 9 9 10 11 11 12 13 14 15 16 16 13 16
3 4 5 7 5 4 4 3 3 4 2 3 2 2 2 2 2 1 5 3 1 3 7 8 9 10 13 14 12 11 14 15 16 15 16 10 8 10 10 10 9 9 8 6 9 9 10 10 12 14 16 15 12 15
4 5 4 6 4 6 4 4 4 3 2 4 3 2 1 2 2 3 4 0 2 2 3 9 11 12 13 14 13 11 9 8 5 6 7 8 9 12 9 8 8 8 8 9 9 9 12 11 12 14 15 12 14 16
4 6 3 5 4 4 6 5 4 5 4 2 3 3 2 1 2 5 4 1 3 4 6 8 10 12 12 13 14 10 5 5 7 6 8 12 12 12 9 8 7 7 7 8 10 10 11 13 14 16 15 13 14 16
5 7 5 5 5 5 2 3 4 4 3 4 4 3 4 3 2 2 5 1 5 6 6 9 12 13 11 8 9 8 12 12 10 13 13 12 11 10 9 7 6 5 4 5 6 7 12 13 14 16 15 14 13 17
6 6 6 5 3 4 4 3 1 1 2 2 3 3 3 3 2 2 2 3 2 5 9 11 12 13 13 13 15 17 15 14 15 17 17 16 14 11 9 7 6 4 1 1 4 6 10 13 14 13 15 14 14 13
Wind_Direction
295 298 301 300 295 291 289 292 296 299 304 309 313 318 295 292 295 288 284 252 252 266 291 271 280 274 275 254 282 337 305 23 344 7 341 357 321 349 287 304 328 332 323 337 331 4 17 354 352 22 298 288 303 248
300 298 296 298 303 302 292 286 287 291 296 299 306 311 287 280 278 279 275 231 235 243 275 295 283 264 252 256 290 278 315 304 355 333 334 320 316 331 320 301 358 338 8 293 321 13 320 325 340 344 338 316 170 101
307 305 301 297 297 301 302 293 285 285 287 290 297 304 283 280 275 270 268 255 232 275 288 246 247 228 238 231 228 258 157 330 149 357 301 290 309 20 317 345 303 337 15 273 317 24 336 343 357 357 344 358 102 138
306 307 309 306 303 299 297 294 289 280 276 282 295 300 260 274 274 272 250 250 217 288 281 312 246 294 283 227 221 222 258 273 296 272 271 279 303 144 261 295 283 338 310 319 288 15 330 314 348 347 341 34 103 124
296 303 308 307 305 301 297 292 284 273 274 281 292 312 271 284 272 278 270 253 234 215 308 303 305 287 219 240 229 221 230 241 277 276 231 261 331 291 266 234 223 342 340 346 304 329 319 297 323 335 341 20 77 115
299 302 301 305 307 304 301 292 279 275 271 278 284 288 280 278 266 302 275 197 203 199 279 293 358 274 241 260 247 212 206 218 242 268 272 245 59 284 297 291 57 311 300 313 301 317 308 302 316 348 343 33 35 89
302 302 308 306 310 304 295 289 279 264 270 279 286 292 272 243 250 226 322 65 168 170 250 282 283 183 268 250 191 182 186 208 235 257 246 282 201 255 255 275 2 337 329 329 336 338 8 354 324 320 359 61 78 65
299 300 303 301 304 305 300 285 266 261 260 274 281 284 271 258 263 265 268 224 168 213 244 269 276 258 163 247 216 182 187 221 210 241 215 246 173 235 256 303 334 350 332 321 355 357 340 325 344 8 7 58 86 91
292 294 299 298 297 299 295 273 262 259 258 260 271 275 273 220 218 195 228 178 182 258 275 243 270 316 212 257 265 197 238 230 163 237 222 243 196 236 272 320 358 350 341 311 312 353 16 22 17 23 26 45 88 108
287 289 295 297 295 290 279 267 257 246 249 261 257 237 216 191 201 134 137 149 192 234 238 251 254 263 300 257 259 268 210 268 244 95 137 231 222 104 134 85 43 8 12 7 14 5 5 20 21 28 37 31 23 123
280 285 289 292 288 278 269 253 234 217 212 186 220 235 84 138 182 214 213 197 175 229 208 227 235 244 205 262 305 216 314 267 263 116 270 191 203 139 134 121 98 68 65 59 63 48 40 30 24 29 39 51 54 47
280 282 285 285 278 268 262 234 216 209 199 196 288 260 192 204 208 235 205 215 208 236 186 220 208 220 221 233 255 192 268 201 260 135 249 227 100 137 144 129 116 102 73 65 62 59 50 47 45 47 45 52 62 69
280 277 278 281 273 266 243 226 210 208 218 251 246 245 205 187 232 222 200 205 219 200 192 192 198 217 187 223 248 242 227 245 250 224 250 48 125 158 150 136 119 113 102 87 83 69 64 56 50 55 56 53 63 64
278 273 273 275 267 258 233 216 209 195 155 211 207 219 217 191 228 202 222 254 188 201 194 203 230 231 205 208 243 249 207 230 243 219 191 138 151 155 144 143 157 128 122 107 97 90 78 73 64 56 53 49 59 60
275 270 273 260 252 247 223 211 200 171 152 226 224 234 222 240 255 243 267 263 222 251 218 219 235 234 212 231 232 235 217 236 250 56 96 127 147 156 151 154 144 140 136 125 126 115 106 97 86 77 68 66 63 65
272 271 252 241 238 236 212 204 162 155 185 233 233 252 250 265 245 218 227 237 227 242 246 227 243 229 218 223 207 208 235 243 72 64 91 141 150 153 148 145 146 137 125 116 108 107 104 96 89 85 86 81 75 73
261 245 234 234 237 223 207 154 149 166 211 229 233 234 264 293 292 293 261 250 299 243 226 219 218 212 181 216 214 204 217 58 70 96 130 151 157 154 153 151 150 146 137 125 121 112 104 106 103 93 80 77 91 92
235 233 241 233 219 187 151 178 163 180 226 237 244 236 221 246 268 259 246 239 228 232 232 245 290 226 225 225 209 173 149 94 75 92 139 154 157 158 161 160 161 158 152 145 137 129 131 123 106 99 111 112 104 102
235 231 234 239 188 141 156 182 189 209 225 257 242 253 256 257 254 258 263 231 221 254 260 230 237 236 232 245 267 234 174 330 116 127 140 158 161 162 163 162 162 162 158 154 154 149 126 103 109 125 130 133 129 131
237 236 227 221 173 129 144 153 185 218 235 246 237 249 242 251 258 240 236 227 210 212 220 235 244 249 237 204 5 329 332 133 153 149 154 161 166 165 166 164 161 156 156 150 142 137 133 125 123 129 134 140 140 148
212 224 242 172 129 84 174 174 192 223 232 238 242 242 250 229 234 232 228 201 207 220 229 235 248 251 256 260 274 218 230 226 209 195 172 169 170 169 164 166 160 166 162 162 158 145 167 127 136 135 143 146 139 146
186 195 135 148 117 162 181 196 216 181 218 235 235 226 250 236 236 226 225 209 227 228 230 235 231 237 241 235 240 221 209 183 180 141 172 163 173 172 171 168 173 172 172 168 165 163 153 144 149 151 149 143 150 149
148 129 140 124 140 168 163 190 212 213 238 227 219 246 234 230 230 177 229 226 238 240 236 234 233 233 236 243 225 217 189 173 165 177 166 176 189 176 173 172 179 177 174 173 173 167 158 152 160 160 151 159 155 152
168 147 147 168 190 159 158 180 217 233 239 234 250 251 258 250 204 232 248 245 239 232 235 227 215 222 206 220 217 193 178 172 132 174 182 176 175 178 178 176 181 182 186 178 183 178 169 175 169 174 172 173 172 172
149 166 199 158 173 150 180 174 186 219 241 213 227 239 231 201 228 243 260 265 234 202 198 196 201 210 209 207 184 170 166 169 170 175 179 177 171 168 174 179 181 185 184 175 184 187 186 183 188 189 185 183 181 181
228 158 191 181 161 193 185 201 205 215 235 227 231 242 224 229 230 222 196 10 353 172 179 188 193 190 177 175 170 164 172 187 169 171 173 176 174 174 173 176 180 187 192 195 189 195 197 199 201 197 194 188 189 188
197 168 181 236 184 191 211 247 247 234 207 218 229 218 218 232 220 95 28 33 15 87 149 161 172 165 163 156 157 163 160 166 175 172 171 173 173 179 181 188 189 191 188 198 206 209 211 207 207 202 200 192 190 195
277 189 181 169 181 219 267 253 217 192 204 234 237 222 227 292 59 357 351 5 350 104 112 116 116 132 151 137 142 142 144 140 133 139 146 156 165 173 178 183 171 164 175 195 213 220 215 210 206 200 197 193 188 193
212 200 178 176 158 211 231 248 232 212 238 238 249 277 44 69 73 24 349 348 294 178 139 123 118 125 121 118 124 137 152 159 155 158 163 162 162 169 178 182 181 187 196 194 198 187 194 198 198 192 191 189 188 186
195 186 208 191 214 216 224 218 264 288 268 276 283 262 137 106 59 353 5 170 164 175 92 133 148 139 128 124 116 102 88 91 107 197 183 167 151 147 149 152 156 165 162 160 162 164 175 169 175 179 185 187 184 184
163 189 220 211 236 244 236 242 247 264 265 260 273 262 101 138 119 45 34 7 173 156 136 133 119 124 127 135 132 111 94 101 97 86 111 119 123 121 126 128 134 149 158 166 169 173 177 175 182 186 191 196 192 194
192 201 215 223 239 243 243 235 231 245 251 242 263 205 159 166 83 23 3 341 153 140 138 141 136 128 135 119 107 118 145 135 126 122 121 126 127 125 125 123 116 118 143 168 182 192 196 198 198 202 204 209 209 204
207 209 219 247 243 219 182 193 225 317 258 271 250 213 173 133 153 141 44 43 71 142 122 117 119 116 114 111 112 112 115 119 128 128 127 125 124 118 107 94 85 81 87 223 228 223 219 220 223 223 216 219 222 224